Year,Month,Day,Hour,Minute,Value (Times are PST for temperature in C)
2010,02,19,00,00,-1.50
2010,02,19,00,01,-1.50
2010,02,19,00,02,-1.50
2010,02,19,00,03,-1.60
2010,02,19,00,04,-1.60
2010,02,19,00,05,-1.60
2010,02,19,00,06,-1.60
2010,02,19,00,07,-1.60
2010,02,19,00,08,-1.60
2010,02,19,00,09,-1.60
2010,02,19,00,10,-1.60
2010,02,19,00,11,-1.60
2010,02,19,00,12,-1.60
2010,02,19,00,13,-1.60
2010,02,19,00,14,-1.60
2010,02,19,00,15,-1.60
2010,02,19,00,16,-1.60
2010,02,19,00,17,-1.60
2010,02,19,00,18,-1.60
2010,02,19,00,19,-1.60
2010,02,19,00,20,-1.60
2010,02,19,00,21,-1.60
2010,02,19,00,22,-1.60
2010,02,19,00,23,-1.60
2010,02,19,00,24,-1.60
2010,02,19,00,25,-1.60
2010,02,19,00,26,-1.60
2010,02,19,00,27,-1.60
2010,02,19,00,28,-1.60
2010,02,19,00,29,-1.60
2010,02,19,00,30,-1.60
2010,02,19,00,31,-1.60
2010,02,19,00,32,-1.60
2010,02,19,00,33,-1.70
2010,02,19,00,34,-1.70
2010,02,19,00,35,-1.70
2010,02,19,00,36,-1.70
2010,02,19,00,37,-1.70
2010,02,19,00,38,-1.70
2010,02,19,00,39,-1.70
2010,02,19,00,40,-1.70
2010,02,19,00,41,-1.70
2010,02,19,00,42,-1.70
2010,02,19,00,43,-1.70
2010,02,19,00,44,-1.70
2010,02,19,00,45,-1.70
2010,02,19,00,46,-1.70
2010,02,19,00,47,-1.70
2010,02,19,00,48,-1.70
2010,02,19,00,49,-1.70
2010,02,19,00,50,-1.80
2010,02,19,00,51,-1.80
2010,02,19,00,52,-1.80
2010,02,19,00,53,-1.80
2010,02,19,00,54,-1.80
2010,02,19,00,55,-1.80
2010,02,19,00,56,-1.80
2010,02,19,00,57,-1.80
2010,02,19,00,58,-1.80
2010,02,19,00,59,-1.80
2010,02,19,01,00,-1.80
2010,02,19,01,01,-1.80
2010,02,19,01,02,-1.70
2010,02,19,01,03,-1.70
2010,02,19,01,04,-1.80
2010,02,19,01,05,-1.80
2010,02,19,01,06,-1.80
2010,02,19,01,07,-1.80
2010,02,19,01,08,-1.80
2010,02,19,01,09,-1.80
2010,02,19,01,10,-1.80
2010,02,19,01,11,-1.80
2010,02,19,01,12,-1.80
2010,02,19,01,13,-1.80
2010,02,19,01,14,-1.80
2010,02,19,01,15,-1.80
2010,02,19,01,16,-1.80
2010,02,19,01,17,-1.80
2010,02,19,01,18,-1.80
2010,02,19,01,19,-1.80
2010,02,19,01,20,-1.80
2010,02,19,01,21,-1.80
2010,02,19,01,22,-1.80
2010,02,19,01,23,-1.80
2010,02,19,01,24,-1.80
2010,02,19,01,25,-1.80
2010,02,19,01,26,-1.80
2010,02,19,01,27,-1.80
2010,02,19,01,28,-1.80
2010,02,19,01,29,-1.80
2010,02,19,01,30,-1.80
2010,02,19,01,31,-1.80
2010,02,19,01,32,-1.80
2010,02,19,01,33,-1.80
2010,02,19,01,34,-1.80
2010,02,19,01,35,-1.80
2010,02,19,01,36,-1.80
2010,02,19,01,37,-1.80
2010,02,19,01,38,-1.80
2010,02,19,01,39,-1.80
2010,02,19,01,40,-1.80
2010,02,19,01,41,-1.80
2010,02,19,01,42,-1.80
2010,02,19,01,43,-1.90
2010,02,19,01,44,-1.90
2010,02,19,01,45,-1.90
2010,02,19,01,46,-1.90
2010,02,19,01,47,-1.90
2010,02,19,01,48,-1.90
2010,02,19,01,49,-1.90
2010,02,19,01,50,-1.90
2010,02,19,01,51,-1.90
2010,02,19,01,52,-1.90
2010,02,19,01,53,-1.90
2010,02,19,01,54,-1.90
2010,02,19,01,55,-1.90
2010,02,19,01,56,-1.90
2010,02,19,01,57,-1.90
2010,02,19,01,58,-1.90
2010,02,19,01,59,-1.90
2010,02,19,02,00,-1.90
2010,02,19,02,01,-1.90
2010,02,19,02,02,-1.90
2010,02,19,02,03,-1.90
2010,02,19,02,04,-1.90
2010,02,19,02,05,-1.90
2010,02,19,02,06,-1.90
2010,02,19,02,07,-1.90
2010,02,19,02,08,-1.90
2010,02,19,02,09,-1.90
2010,02,19,02,10,-1.90
2010,02,19,02,11,-1.90
2010,02,19,02,12,-1.90
2010,02,19,02,13,-1.90
2010,02,19,02,14,-1.90
2010,02,19,02,15,-2.00
2010,02,19,02,16,-2.00
2010,02,19,02,17,-2.00
2010,02,19,02,18,-2.00
2010,02,19,02,19,-2.00
2010,02,19,02,20,-2.00
2010,02,19,02,21,-2.00
2010,02,19,02,22,-2.00
2010,02,19,02,23,-2.00
2010,02,19,02,24,-2.00
2010,02,19,02,25,-2.00
2010,02,19,02,26,-2.00
2010,02,19,02,27,-2.00
2010,02,19,02,28,-2.00
2010,02,19,02,29,-2.00
2010,02,19,02,30,-2.00
2010,02,19,02,31,-2.10
2010,02,19,02,32,-2.00
2010,02,19,02,33,-2.10
2010,02,19,02,34,-2.00
2010,02,19,02,35,-2.00
2010,02,19,02,36,-2.00
2010,02,19,02,37,-2.00
2010,02,19,02,38,-2.00
2010,02,19,02,39,-2.00
2010,02,19,02,40,-2.00
2010,02,19,02,41,-2.00
2010,02,19,02,42,-2.00
2010,02,19,02,43,-2.00
2010,02,19,02,44,-2.00
2010,02,19,02,45,-2.10
2010,02,19,02,46,-2.10
2010,02,19,02,47,-2.10
2010,02,19,02,48,-2.10
2010,02,19,02,49,-2.10
2010,02,19,02,50,-2.10
2010,02,19,02,51,-2.10
2010,02,19,02,52,-2.10
2010,02,19,02,53,-2.10
2010,02,19,02,54,-2.10
2010,02,19,02,55,-2.10
2010,02,19,02,56,-2.10
2010,02,19,02,57,-2.10
2010,02,19,02,58,-2.10
2010,02,19,02,59,-2.10
2010,02,19,03,00,-2.10
2010,02,19,03,01,-2.20
2010,02,19,03,02,-2.20
2010,02,19,03,03,-2.20
2010,02,19,03,04,-2.20
2010,02,19,03,05,-2.20
2010,02,19,03,06,-2.20
2010,02,19,03,07,-2.20
2010,02,19,03,08,-2.20
2010,02,19,03,09,-2.20
2010,02,19,03,10,-2.20
2010,02,19,03,11,-2.20
2010,02,19,03,12,-2.20
2010,02,19,03,13,-2.20
2010,02,19,03,14,-2.20
2010,02,19,03,15,-2.20
2010,02,19,03,16,-2.20
2010,02,19,03,17,-2.20
2010,02,19,03,18,-2.20
2010,02,19,03,19,-2.20
2010,02,19,03,20,-2.20
2010,02,19,03,21,-2.20
2010,02,19,03,22,-2.20
2010,02,19,03,23,-2.20
2010,02,19,03,24,-2.20
2010,02,19,03,25,-2.20
2010,02,19,03,26,-2.20
2010,02,19,03,27,-2.20
2010,02,19,03,28,-2.20
2010,02,19,03,29,-2.20
2010,02,19,03,30,-2.20
2010,02,19,03,31,-2.20
2010,02,19,03,32,-2.20
2010,02,19,03,33,-2.20
2010,02,19,03,34,-2.20
2010,02,19,03,35,-2.20
2010,02,19,03,36,-2.20
2010,02,19,03,37,-2.20
2010,02,19,03,38,-2.20
2010,02,19,03,39,-2.20
2010,02,19,03,40,-2.20
2010,02,19,03,41,-2.20
2010,02,19,03,42,-2.20
2010,02,19,03,43,-2.20
2010,02,19,03,44,-2.20
2010,02,19,03,45,-2.20
2010,02,19,03,46,-2.30
2010,02,19,03,47,-2.30
2010,02,19,03,48,-2.30
2010,02,19,03,49,-2.30
2010,02,19,03,50,-2.30
2010,02,19,03,51,-2.30
2010,02,19,03,52,-2.30
2010,02,19,03,53,-2.30
2010,02,19,03,54,-2.30
2010,02,19,03,55,-2.30
2010,02,19,03,56,-2.30
2010,02,19,03,57,-2.30
2010,02,19,03,58,-2.30
2010,02,19,03,59,-2.30
2010,02,19,04,00,-2.30
2010,02,19,04,01,-2.30
2010,02,19,04,02,-2.30
2010,02,19,04,03,-2.30
2010,02,19,04,06,-2.30
2010,02,19,04,07,-2.30
2010,02,19,04,08,-2.30
2010,02,19,04,09,-2.30
2010,02,19,04,10,-2.30
2010,02,19,04,11,-2.30
2010,02,19,04,12,-2.30
2010,02,19,04,13,-2.30
2010,02,19,04,14,-2.30
2010,02,19,04,15,-2.30
2010,02,19,04,16,-2.30
2010,02,19,04,17,-2.30
2010,02,19,04,18,-2.30
2010,02,19,04,19,-2.30
2010,02,19,04,20,-2.30
2010,02,19,04,21,-2.30
2010,02,19,04,22,-2.30
2010,02,19,04,23,-2.30
2010,02,19,04,24,-2.30
2010,02,19,04,25,-2.30
2010,02,19,04,26,-2.30
2010,02,19,04,27,-2.30
2010,02,19,04,28,-2.40
2010,02,19,04,29,-2.40
2010,02,19,04,30,-2.40
2010,02,19,04,31,-2.40
2010,02,19,04,32,-2.40
2010,02,19,04,33,-2.40
2010,02,19,04,34,-2.40
2010,02,19,04,35,-2.40
2010,02,19,04,36,-2.30
2010,02,19,04,37,-2.30
2010,02,19,04,38,-2.30
2010,02,19,04,39,-2.40
2010,02,19,04,40,-2.40
2010,02,19,04,41,-2.40
2010,02,19,04,42,-2.40
2010,02,19,04,43,-2.40
2010,02,19,04,44,-2.40
2010,02,19,04,45,-2.40
2010,02,19,04,46,-2.40
2010,02,19,04,47,-2.40
2010,02,19,04,48,-2.30
2010,02,19,04,49,-2.30
2010,02,19,04,50,-2.30
2010,02,19,04,51,-2.30
2010,02,19,04,52,-2.30
2010,02,19,04,53,-2.30
2010,02,19,04,54,-2.30
2010,02,19,04,55,-2.30
2010,02,19,04,56,-2.30
2010,02,19,04,57,-2.30
2010,02,19,04,58,-2.30
2010,02,19,04,59,-2.30
2010,02,19,05,00,-2.30
2010,02,19,05,01,-2.30
2010,02,19,05,02,-2.30
2010,02,19,05,03,-2.30
2010,02,19,05,04,-2.40
2010,02,19,05,05,-2.40
2010,02,19,05,06,-2.40
2010,02,19,05,07,-2.40
2010,02,19,05,08,-2.40
2010,02,19,05,09,-2.40
2010,02,19,05,10,-2.40
2010,02,19,05,11,-2.40
2010,02,19,05,12,-2.40
2010,02,19,05,13,-2.40
2010,02,19,05,14,-2.40
2010,02,19,05,15,-2.40
2010,02,19,05,16,-2.40
2010,02,19,05,17,-2.40
2010,02,19,05,18,-2.40
2010,02,19,05,19,-2.40
2010,02,19,05,20,-2.40
2010,02,19,05,21,-2.40
2010,02,19,05,22,-2.40
2010,02,19,05,23,-2.40
2010,02,19,05,24,-2.40
2010,02,19,05,25,-2.40
2010,02,19,05,26,-2.40
2010,02,19,05,27,-2.40
2010,02,19,05,28,-2.40
2010,02,19,05,29,-2.40
2010,02,19,05,30,-2.40
2010,02,19,05,31,-2.40
2010,02,19,05,32,-2.40
2010,02,19,05,33,-2.40
2010,02,19,05,34,-2.40
2010,02,19,05,35,-2.40
2010,02,19,05,36,-2.40
2010,02,19,05,37,-2.40
2010,02,19,05,38,-2.40
2010,02,19,05,39,-2.40
2010,02,19,05,40,-2.40
2010,02,19,05,41,-2.40
2010,02,19,05,42,-2.40
2010,02,19,05,43,-2.40
2010,02,19,05,44,-2.40
2010,02,19,05,45,-2.40
2010,02,19,05,46,-2.40
2010,02,19,05,47,-2.40
2010,02,19,05,48,-2.40
2010,02,19,05,49,-2.40
2010,02,19,05,50,-2.40
2010,02,19,05,51,-2.40
2010,02,19,05,52,-2.40
2010,02,19,05,53,-2.40
2010,02,19,05,54,-2.50
2010,02,19,05,55,-2.50
2010,02,19,05,56,-2.50
2010,02,19,05,57,-2.50
2010,02,19,05,58,-2.50
2010,02,19,05,59,-2.50
2010,02,19,06,00,-2.50
2010,02,19,06,01,-2.50
2010,02,19,06,02,-2.50
2010,02,19,06,03,-2.50
2010,02,19,06,04,-2.50
2010,02,19,06,05,-2.50
2010,02,19,06,06,-2.50
2010,02,19,06,07,-2.60
2010,02,19,06,08,-2.50
2010,02,19,06,09,-2.50
2010,02,19,06,10,-2.60
2010,02,19,06,11,-2.60
2010,02,19,06,12,-2.60
2010,02,19,06,13,-2.60
2010,02,19,06,14,-2.60
2010,02,19,06,15,-2.60
2010,02,19,06,16,-2.60
2010,02,19,06,17,-2.60
2010,02,19,06,18,-2.60
2010,02,19,06,19,-2.60
2010,02,19,06,20,-2.60
2010,02,19,06,21,-2.60
2010,02,19,06,22,-2.60
2010,02,19,06,23,-2.60
2010,02,19,06,24,-2.60
2010,02,19,06,25,-2.60
2010,02,19,06,26,-2.60
2010,02,19,06,27,-2.60
2010,02,19,06,28,-2.60
2010,02,19,06,29,-2.60
2010,02,19,06,30,-2.60
2010,02,19,06,31,-2.60
2010,02,19,06,32,-2.60
2010,02,19,06,33,-2.60
2010,02,19,06,34,-2.60
2010,02,19,06,35,-2.60
2010,02,19,06,36,-2.60
2010,02,19,06,37,-2.60
2010,02,19,06,38,-2.60
2010,02,19,06,39,-2.60
2010,02,19,06,40,-2.60
2010,02,19,06,41,-2.60
2010,02,19,06,42,-2.60
2010,02,19,06,43,-2.60
2010,02,19,06,44,-2.60
2010,02,19,06,45,-2.60
2010,02,19,06,46,-2.60
2010,02,19,06,47,-2.60
2010,02,19,06,48,-2.60
2010,02,19,06,49,-2.60
2010,02,19,06,50,-2.60
2010,02,19,06,51,-2.60
2010,02,19,06,52,-2.60
2010,02,19,06,53,-2.60
2010,02,19,06,54,-2.60
2010,02,19,06,55,-2.60
2010,02,19,06,56,-2.60
2010,02,19,06,57,-2.60
2010,02,19,06,58,-2.60
2010,02,19,06,59,-2.60
2010,02,19,07,00,-2.60
2010,02,19,07,01,-2.60
2010,02,19,07,02,-2.60
2010,02,19,07,03,-2.60
2010,02,19,07,04,-2.60
2010,02,19,07,05,-2.60
2010,02,19,07,06,-2.60
2010,02,19,07,07,-2.50
2010,02,19,07,08,-2.50
2010,02,19,07,09,-2.50
2010,02,19,07,10,-2.50
2010,02,19,07,11,-2.50
2010,02,19,07,12,-2.50
2010,02,19,07,13,-2.50
2010,02,19,07,14,-2.50
2010,02,19,07,15,-2.60
2010,02,19,07,16,-2.60
2010,02,19,07,17,-2.60
2010,02,19,07,18,-2.60
2010,02,19,07,19,-2.60
2010,02,19,07,20,-2.60
2010,02,19,07,21,-2.60
2010,02,19,07,22,-2.60
2010,02,19,07,23,-2.50
2010,02,19,07,24,-2.50
2010,02,19,07,25,-2.50
2010,02,19,07,26,-2.50
2010,02,19,07,27,-2.50
2010,02,19,07,28,-2.50
2010,02,19,07,29,-2.50
2010,02,19,07,30,-2.50
2010,02,19,07,31,-2.50
2010,02,19,07,32,-2.50
2010,02,19,07,33,-2.50
2010,02,19,07,34,-2.40
2010,02,19,07,35,-2.40
2010,02,19,07,36,-2.40
2010,02,19,07,37,-2.40
2010,02,19,07,38,-2.40
2010,02,19,07,39,-2.40
2010,02,19,07,40,-2.40
2010,02,19,07,41,-2.40
2010,02,19,07,42,-2.40
2010,02,19,07,43,-2.40
2010,02,19,07,44,-2.40
2010,02,19,07,45,-2.40
2010,02,19,07,46,-2.40
2010,02,19,07,47,-2.40
2010,02,19,07,48,-2.40
2010,02,19,07,49,-2.40
2010,02,19,07,50,-2.40
2010,02,19,07,51,-2.30
2010,02,19,07,52,-2.30
2010,02,19,07,53,-2.30
2010,02,19,07,54,-2.30
2010,02,19,07,55,-2.30
2010,02,19,07,56,-2.30
2010,02,19,07,57,-2.30
2010,02,19,07,58,-2.20
2010,02,19,07,59,-2.20
2010,02,19,08,00,-2.20
2010,02,19,08,01,-2.20
2010,02,19,08,02,-2.20
2010,02,19,08,03,-2.20
2010,02,19,08,04,-2.20
2010,02,19,08,05,-2.20
2010,02,19,08,06,-2.20
2010,02,19,08,07,-2.20
2010,02,19,08,08,-2.20
2010,02,19,08,09,-2.20
2010,02,19,08,10,-2.20
2010,02,19,08,11,-2.20
2010,02,19,08,12,-2.20
2010,02,19,08,13,-2.20
2010,02,19,08,14,-2.10
2010,02,19,08,15,-2.10
2010,02,19,08,16,-2.10
2010,02,19,08,17,-2.10
2010,02,19,08,18,-2.10
2010,02,19,08,19,-2.10
2010,02,19,08,20,-2.10
2010,02,19,08,21,-2.10
2010,02,19,08,22,-2.10
2010,02,19,08,23,-2.00
2010,02,19,08,24,-2.00
2010,02,19,08,25,-2.00
2010,02,19,08,26,-2.00
2010,02,19,08,27,-2.00
2010,02,19,08,28,-1.90
2010,02,19,08,29,-1.90
2010,02,19,08,30,-1.90
2010,02,19,08,31,-1.90
2010,02,19,08,32,-1.90
2010,02,19,08,33,-1.90
2010,02,19,08,34,-1.80
2010,02,19,08,35,-1.80
2010,02,19,08,36,-1.80
2010,02,19,08,37,-1.70
2010,02,19,08,38,-1.70
2010,02,19,08,39,-1.60
2010,02,19,08,40,-1.60
2010,02,19,08,41,-1.60
2010,02,19,08,42,-1.50
2010,02,19,08,43,-1.50
2010,02,19,08,44,-1.50
2010,02,19,08,45,-1.50
2010,02,19,08,46,-1.40
2010,02,19,08,47,-1.40
2010,02,19,08,48,-1.40
2010,02,19,08,49,-1.40
2010,02,19,08,50,-1.30
2010,02,19,08,51,-1.30
2010,02,19,08,52,-1.30
2010,02,19,08,53,-1.20
2010,02,19,08,54,-1.20
2010,02,19,08,55,-1.20
2010,02,19,08,56,-1.10
2010,02,19,08,57,-1.10
2010,02,19,08,58,-1.00
2010,02,19,08,59,-0.90
2010,02,19,09,00,-0.80
2010,02,19,09,01,-0.80
2010,02,19,09,02,-0.70
2010,02,19,09,03,-0.60
2010,02,19,09,04,-0.50
2010,02,19,09,05,-0.50
2010,02,19,09,06,-0.40
2010,02,19,09,07,-0.40
2010,02,19,09,08,-0.30
2010,02,19,09,09,-0.30
2010,02,19,09,10,-0.20
2010,02,19,09,11,-0.20
2010,02,19,09,12,-0.20
2010,02,19,09,13,-0.10
2010,02,19,09,14,-0.10
2010,02,19,09,15,0.00
2010,02,19,09,16,0.00
2010,02,19,09,17,0.10
2010,02,19,09,18,0.20
2010,02,19,09,19,0.30
2010,02,19,09,20,0.40
2010,02,19,09,21,0.50
2010,02,19,09,22,0.60
2010,02,19,09,23,0.70
2010,02,19,09,24,0.80
2010,02,19,09,25,0.80
2010,02,19,09,26,0.90
2010,02,19,09,27,1.00
2010,02,19,09,28,1.10
2010,02,19,09,29,1.20
2010,02,19,09,30,1.30
2010,02,19,09,31,1.30
2010,02,19,09,32,1.30
2010,02,19,09,33,1.40
2010,02,19,09,34,1.50
2010,02,19,09,35,1.60
2010,02,19,09,36,1.70
2010,02,19,09,37,1.70
2010,02,19,09,38,1.70
2010,02,19,09,39,1.70
2010,02,19,09,40,1.80
2010,02,19,09,41,1.80
2010,02,19,09,42,1.80
2010,02,19,09,43,1.90
2010,02,19,09,44,1.90
2010,02,19,09,45,2.00
2010,02,19,09,46,2.00
2010,02,19,09,47,2.10
2010,02,19,09,48,2.10
2010,02,19,09,49,2.10
2010,02,19,09,50,2.20
2010,02,19,09,51,2.20
2010,02,19,09,52,2.30
2010,02,19,09,53,2.30
2010,02,19,09,54,2.40
2010,02,19,09,55,2.50
2010,02,19,09,56,2.50
2010,02,19,09,57,2.70
2010,02,19,09,58,2.70
2010,02,19,09,59,2.70
2010,02,19,10,00,2.80
2010,02,19,10,01,2.80
2010,02,19,10,02,2.90
2010,02,19,10,03,3.00
2010,02,19,10,04,3.00
2010,02,19,10,05,3.10
2010,02,19,10,06,3.10
2010,02,19,10,07,3.20
2010,02,19,10,08,3.30
2010,02,19,10,09,3.30
2010,02,19,10,10,3.40
2010,02,19,10,11,3.40
2010,02,19,10,12,3.50
2010,02,19,10,13,3.60
2010,02,19,10,14,3.60
2010,02,19,10,15,3.60
2010,02,19,10,16,3.70
2010,02,19,10,17,3.70
2010,02,19,10,18,3.80
2010,02,19,10,19,3.90
2010,02,19,10,20,4.00
2010,02,19,10,21,4.10
2010,02,19,10,22,4.10
2010,02,19,10,23,4.20
2010,02,19,10,24,4.30
2010,02,19,10,25,4.40
2010,02,19,10,26,4.50
2010,02,19,10,27,4.60
2010,02,19,10,28,4.70
2010,02,19,10,29,4.80
2010,02,19,10,30,5.00
2010,02,19,10,31,5.10
2010,02,19,10,32,5.30
2010,02,19,10,33,5.40
2010,02,19,10,34,5.50
2010,02,19,10,35,5.70
2010,02,19,10,36,5.80
2010,02,19,10,37,5.90
2010,02,19,10,38,6.00
2010,02,19,10,39,6.20
2010,02,19,10,40,6.30
2010,02,19,10,41,6.30
2010,02,19,10,42,6.40
2010,02,19,10,43,6.50
2010,02,19,10,44,6.50
2010,02,19,10,45,6.60
2010,02,19,10,46,6.70
2010,02,19,10,47,6.70
2010,02,19,10,48,6.80
2010,02,19,10,49,6.80
2010,02,19,10,50,6.90
2010,02,19,10,51,6.90
2010,02,19,10,52,6.90
2010,02,19,10,53,7.00
2010,02,19,10,54,7.10
2010,02,19,10,55,7.10
2010,02,19,10,56,7.20
2010,02,19,10,57,7.20
2010,02,19,10,58,7.30
2010,02,19,10,59,7.40
2010,02,19,11,00,7.50
2010,02,19,11,01,7.50
2010,02,19,11,02,7.60
2010,02,19,11,03,7.70
2010,02,19,11,04,7.70
2010,02,19,11,05,7.80
2010,02,19,11,06,7.80
2010,02,19,11,07,7.90
2010,02,19,11,08,7.90
2010,02,19,11,09,7.90
2010,02,19,11,10,7.90
2010,02,19,11,11,8.00
2010,02,19,11,12,8.00
2010,02,19,11,13,8.10
2010,02,19,11,14,8.20
2010,02,19,11,15,8.20
2010,02,19,11,16,8.30
2010,02,19,11,17,8.40
2010,02,19,11,18,8.40
2010,02,19,11,19,8.50
2010,02,19,11,20,8.50
2010,02,19,11,21,8.60
2010,02,19,11,22,8.70
2010,02,19,11,23,8.80
2010,02,19,11,24,8.90
2010,02,19,11,25,9.00
2010,02,19,11,26,9.10
2010,02,19,11,27,9.20
2010,02,19,11,28,9.20
2010,02,19,11,29,9.30
2010,02,19,11,30,9.30
2010,02,19,11,31,9.30
2010,02,19,11,32,9.40
2010,02,19,11,33,9.40
2010,02,19,11,34,9.40
2010,02,19,11,35,9.30
2010,02,19,11,36,9.30
2010,02,19,11,37,9.30
2010,02,19,11,38,9.20
2010,02,19,11,39,9.20
2010,02,19,11,40,9.10
2010,02,19,11,41,9.10
2010,02,19,11,42,9.10
2010,02,19,11,43,9.10
2010,02,19,11,44,9.10
2010,02,19,11,45,9.10
2010,02,19,11,46,9.20
2010,02,19,11,47,9.20
2010,02,19,11,48,9.20
2010,02,19,11,49,9.30
2010,02,19,11,50,9.30
2010,02,19,11,51,9.40
2010,02,19,11,52,9.40
2010,02,19,11,53,9.50
2010,02,19,11,54,9.50
2010,02,19,11,55,9.60
2010,02,19,11,56,9.60
2010,02,19,11,57,9.70
2010,02,19,11,58,9.80
2010,02,19,11,59,9.90
2010,02,19,12,00,9.90
2010,02,19,12,01,10.00
2010,02,19,12,02,10.00
2010,02,19,12,03,10.10
2010,02,19,12,04,10.20
2010,02,19,12,05,10.20
2010,02,19,12,06,10.20
2010,02,19,12,07,10.30
2010,02,19,12,08,10.30
2010,02,19,12,09,10.30
2010,02,19,12,10,10.30
2010,02,19,12,11,10.30
2010,02,19,12,12,10.30
2010,02,19,12,13,10.30
2010,02,19,12,14,10.40
2010,02,19,12,15,10.50
2010,02,19,12,16,10.60
2010,02,19,12,17,10.70
2010,02,19,12,18,10.80
2010,02,19,12,19,10.80
2010,02,19,12,20,10.80
2010,02,19,12,21,10.90
2010,02,19,12,22,10.90
2010,02,19,12,23,11.00
2010,02,19,12,24,11.00
2010,02,19,12,25,11.00
2010,02,19,12,26,11.10
2010,02,19,12,27,11.10
2010,02,19,12,28,11.10
2010,02,19,12,29,11.10
2010,02,19,12,30,11.10
2010,02,19,12,31,11.20
2010,02,19,12,32,11.20
2010,02,19,12,33,11.20
2010,02,19,12,34,11.20
2010,02,19,12,35,11.20
2010,02,19,12,36,11.20
2010,02,19,12,37,11.20
2010,02,19,12,38,11.20
2010,02,19,12,39,11.20
2010,02,19,12,40,11.30
2010,02,19,12,41,11.30
2010,02,19,12,42,11.30
2010,02,19,12,43,11.40
2010,02,19,12,44,11.50
2010,02,19,12,45,11.60
2010,02,19,12,46,11.60
2010,02,19,12,47,11.70
2010,02,19,12,48,11.70
2010,02,19,12,49,11.70
2010,02,19,12,50,11.70
2010,02,19,12,51,11.70
2010,02,19,12,52,11.70
2010,02,19,12,53,11.80
2010,02,19,12,54,11.90
2010,02,19,12,55,12.00
2010,02,19,12,56,12.10
2010,02,19,12,57,12.20
2010,02,19,12,58,12.20
2010,02,19,12,59,12.30
2010,02,19,13,00,12.30
2010,02,19,13,01,12.30
2010,02,19,13,02,12.30
2010,02,19,13,03,12.30
2010,02,19,13,04,12.30
2010,02,19,13,05,12.30
2010,02,19,13,06,12.40
2010,02,19,13,07,12.40
2010,02,19,13,08,12.30
2010,02,19,13,09,12.30
2010,02,19,13,10,12.30
2010,02,19,13,11,12.30
2010,02,19,13,12,12.40
2010,02,19,13,13,12.40
2010,02,19,13,14,12.40
2010,02,19,13,15,12.40
2010,02,19,13,16,12.30
2010,02,19,13,17,12.30
2010,02,19,13,18,12.20
2010,02,19,13,19,12.20
2010,02,19,13,20,12.10
2010,02,19,13,21,12.10
2010,02,19,13,22,12.20
2010,02,19,13,23,12.20
2010,02,19,13,24,12.20
2010,02,19,13,25,12.20
2010,02,19,13,26,12.30
2010,02,19,13,27,12.30
2010,02,19,13,28,12.30
2010,02,19,13,29,12.40
2010,02,19,13,30,12.30
2010,02,19,13,31,12.30
2010,02,19,13,32,12.30
2010,02,19,13,33,12.30
2010,02,19,13,34,12.30
2010,02,19,13,35,12.30
2010,02,19,13,36,12.30
2010,02,19,13,37,12.30
2010,02,19,13,38,12.40
2010,02,19,13,39,12.40
2010,02,19,13,40,12.40
2010,02,19,13,41,12.40
2010,02,19,13,42,12.40
2010,02,19,13,43,12.40
2010,02,19,13,44,12.40
2010,02,19,13,45,12.50
2010,02,19,13,46,12.50
2010,02,19,13,47,12.60
2010,02,19,13,48,12.60
2010,02,19,13,49,12.60
2010,02,19,13,50,12.70
2010,02,19,13,51,12.70
2010,02,19,13,52,12.70
2010,02,19,13,53,12.70
2010,02,19,13,54,12.80
2010,02,19,13,55,12.80
2010,02,19,13,56,12.70
2010,02,19,13,57,12.70
2010,02,19,13,58,12.70
2010,02,19,13,59,12.70
2010,02,19,14,00,12.70
2010,02,19,14,01,12.70
2010,02,19,14,02,12.60
2010,02,19,14,03,12.60
2010,02,19,14,04,12.70
2010,02,19,14,05,12.70
2010,02,19,14,06,12.70
2010,02,19,14,07,12.80
2010,02,19,14,08,12.80
2010,02,19,14,09,12.80
2010,02,19,14,10,12.80
2010,02,19,14,11,12.80
2010,02,19,14,12,12.80
2010,02,19,14,13,12.80
2010,02,19,14,14,12.80
2010,02,19,14,15,12.80
2010,02,19,14,16,12.90
2010,02,19,14,17,12.90
2010,02,19,14,18,12.90
2010,02,19,14,19,12.90
2010,02,19,14,20,12.90
2010,02,19,14,21,12.90
2010,02,19,14,22,13.00
2010,02,19,14,23,13.10
2010,02,19,14,24,13.20
2010,02,19,14,25,13.20
2010,02,19,14,26,13.20
2010,02,19,14,27,13.30
2010,02,19,14,28,13.30
2010,02,19,14,29,13.20
2010,02,19,14,30,13.20
2010,02,19,14,31,13.20
2010,02,19,14,32,13.10
2010,02,19,14,33,13.10
2010,02,19,14,34,13.00
2010,02,19,14,35,13.00
2010,02,19,14,36,13.00
2010,02,19,14,37,13.00
2010,02,19,14,38,13.00
2010,02,19,14,39,13.00
2010,02,19,14,40,13.00
2010,02,19,14,41,12.90
2010,02,19,14,42,12.90
2010,02,19,14,43,12.90
2010,02,19,14,44,13.00
2010,02,19,14,45,13.00
2010,02,19,14,46,13.10
2010,02,19,14,47,13.10
2010,02,19,14,48,13.10
2010,02,19,14,49,13.20
2010,02,19,14,50,13.20
2010,02,19,14,51,13.20
2010,02,19,14,52,13.20
2010,02,19,14,53,13.20
2010,02,19,14,54,13.30
2010,02,19,14,55,13.30
2010,02,19,14,56,13.30
2010,02,19,14,57,13.20
2010,02,19,14,58,13.20
2010,02,19,14,59,13.20
2010,02,19,15,00,13.20
2010,02,19,15,01,13.20
2010,02,19,15,02,13.20
2010,02,19,15,03,13.20
2010,02,19,15,04,13.20
2010,02,19,15,05,13.20
2010,02,19,15,06,13.10
2010,02,19,15,07,13.10
2010,02,19,15,08,13.10
2010,02,19,15,09,13.10
2010,02,19,15,10,13.10
2010,02,19,15,11,13.10
2010,02,19,15,12,13.10
2010,02,19,15,13,13.00
2010,02,19,15,14,13.00
2010,02,19,15,15,13.00
2010,02,19,15,16,13.00
2010,02,19,15,17,12.90
2010,02,19,15,18,12.90
2010,02,19,15,19,12.90
2010,02,19,15,20,12.90
2010,02,19,15,21,12.90
2010,02,19,15,22,12.90
2010,02,19,15,23,12.90
2010,02,19,15,24,12.90
2010,02,19,15,25,12.80
2010,02,19,15,26,12.80
2010,02,19,15,27,12.80
2010,02,19,15,28,12.80
2010,02,19,15,29,12.90
2010,02,19,15,30,12.90
2010,02,19,15,31,12.80
2010,02,19,15,32,12.80
2010,02,19,15,33,12.80
2010,02,19,15,34,12.80
2010,02,19,15,35,12.80
2010,02,19,15,36,12.80
2010,02,19,15,37,12.80
2010,02,19,15,38,12.80
2010,02,19,15,39,12.80
2010,02,19,15,40,12.90
2010,02,19,15,41,12.90
2010,02,19,15,42,12.90
2010,02,19,15,43,12.90
2010,02,19,15,44,12.90
2010,02,19,15,45,12.90
2010,02,19,15,46,12.90
2010,02,19,15,47,12.90
2010,02,19,15,48,12.90
2010,02,19,15,49,12.90
2010,02,19,15,50,12.90
2010,02,19,15,51,12.90
2010,02,19,15,52,13.00
2010,02,19,15,53,12.90
2010,02,19,15,54,12.90
2010,02,19,15,55,12.90
2010,02,19,15,56,12.90
2010,02,19,15,57,12.90
2010,02,19,15,58,12.90
2010,02,19,15,59,12.90
2010,02,19,16,00,12.90
2010,02,19,16,01,12.90
2010,02,19,16,02,12.90
2010,02,19,16,03,12.90
2010,02,19,16,04,12.80
2010,02,19,16,05,12.80
2010,02,19,16,06,12.80
2010,02,19,16,07,12.80
2010,02,19,16,08,12.80
2010,02,19,16,09,12.80
2010,02,19,16,10,12.70
2010,02,19,16,11,12.70
2010,02,19,16,12,12.70
2010,02,19,16,13,12.70
2010,02,19,16,14,12.70
2010,02,19,16,15,12.70
2010,02,19,16,16,12.60
2010,02,19,16,17,12.60
2010,02,19,16,18,12.60
2010,02,19,16,19,12.60
2010,02,19,16,20,12.60
2010,02,19,16,21,12.60
2010,02,19,16,22,12.60
2010,02,19,16,23,12.50
2010,02,19,16,24,12.50
2010,02,19,16,25,12.50
2010,02,19,16,26,12.50
2010,02,19,16,27,12.50
2010,02,19,16,28,12.50
2010,02,19,16,29,12.50
2010,02,19,16,30,12.50
2010,02,19,16,31,12.40
2010,02,19,16,32,12.40
2010,02,19,16,33,12.40
2010,02,19,16,34,12.40
2010,02,19,16,35,12.30
2010,02,19,16,36,12.30
2010,02,19,16,37,12.30
2010,02,19,16,38,12.30
2010,02,19,16,39,12.20
2010,02,19,16,40,12.20
2010,02,19,16,41,12.20
2010,02,19,16,42,12.20
2010,02,19,16,43,12.10
2010,02,19,16,44,12.10
2010,02,19,16,45,12.10
2010,02,19,16,46,12.10
2010,02,19,16,47,12.00
2010,02,19,16,48,12.00
2010,02,19,16,49,11.90
2010,02,19,16,50,11.90
2010,02,19,16,51,11.90
2010,02,19,16,52,11.90
2010,02,19,16,53,11.80
2010,02,19,16,54,11.80
2010,02,19,16,55,11.80
2010,02,19,16,56,11.80
2010,02,19,16,57,11.70
2010,02,19,16,58,11.70
2010,02,19,16,59,11.60
2010,02,19,17,00,11.50
2010,02,19,17,01,11.50
2010,02,19,17,02,11.40
2010,02,19,17,03,11.30
2010,02,19,17,04,11.30
2010,02,19,17,05,11.20
2010,02,19,17,06,11.10
2010,02,19,17,07,11.00
2010,02,19,17,08,10.90
2010,02,19,17,09,10.80
2010,02,19,17,10,10.70
2010,02,19,17,11,10.50
2010,02,19,17,12,10.40
2010,02,19,17,13,10.30
2010,02,19,17,14,10.20
2010,02,19,17,15,10.10
2010,02,19,17,16,10.00
2010,02,19,17,17,9.90
2010,02,19,17,18,9.80
2010,02,19,17,19,9.60
2010,02,19,17,20,9.50
2010,02,19,17,21,9.40
2010,02,19,17,22,9.30
2010,02,19,17,23,9.20
2010,02,19,17,24,9.00
2010,02,19,17,25,8.90
2010,02,19,17,26,8.70
2010,02,19,17,27,8.60
2010,02,19,17,28,8.40
2010,02,19,17,29,8.30